ABS-2

Last updated on Thu Jul 03 2025 00:02:46 GMT+0000 (Coordinated Universal Time)

1 39508U 14006A 25183.59284389 -.00000079 00000+0 00000+0 0 9998 2 39508 0.0257 76.4769 0003682 27.7527 104.9832 1.00271929 41776
UTC large
Height (km)
Speed (km/s)
/
Latitude / Longitude
Inclination (degrees)
Orbital Period (minutes)
Azimuth
Elevation
Range (km)
Doppler Factor

Next 0 passes for location: London (51.5072 / 0.1276)

Sorry there are no passes over London.